{"data":{"norad_id":57891,"epoch":"2026-05-24T23:18:34.272000Z","epoch_age_seconds":77557,"freshness":"FRESH","line1":"1 57891U 23146A   26144.97123000 -.00001764  00000+0 -54634-4 0  9990","line2":"2 57891  42.9979 243.3155 0001836 273.1497  86.9144 15.27562059148722","mean_motion":15.27562059,"eccentricity":0.0001836,"inclination_deg":42.9979,"raan_deg":243.3155,"arg_perigee_deg":273.1497,"mean_anomaly_deg":86.9144,"bstar":-5.4634e-5,"rev_number":14872,"period_min":94.267855863262,"perigee_km":481.84309474304,"apogee_km":484.36254200434,"semimajor_km":6861.2398183737,"source":"CELESTRAK","updated_at":"2026-05-25T13:38:18.451072Z"}}